Flag for U.S.A. Weather past 2 weeks in Allentown, Pennsylvania, U.S.A.

Now
54 °F

Mostly cloudy.


Feels Like: 49 °F
Forecast: 47 / 64 °F
Wind: 18 mph from Northwest

Location: Lehigh Valley International Airport

Current Time: Oct 24, 2014 at 9:08:51 AM

Latest Report: Oct 24, 2014 at 7:51 AM


Visibility: 10 mi

Pressure: 29.87 "Hg

Humidity: 62%

Dew point: 41 °F

Location of AllentownLocation

Historic Weather in Allentown — Graph

°F

Allentown temperature yesterday

Maximum temperature yesterday: 54 °F (at 2:51 PM)
Minimum temperature yesterday: 50 °F (at 7:51 AM)
Average temperature yesterday: 52 °F

Past Weeks' High & Low Weather Summary

 TemperatureHumidityPressure
High79 °F (Oct 14, 3:51 PM)100% (Oct 11, 11:55 PM)30.32 "Hg (Oct 11, 11:55 PM)
Low33 °F (Oct 20, 6:51 AM)31% (Oct 9, 12:51 PM)29.59 "Hg (Oct 18, 5:51 AM)
Average57 °F72%29.96 "Hg
* Reported Oct 9 7:51 AM — Oct 24 7:51 AM, Allentown, Weather by CustomWeather, © 2014

Note: Actual official high and low records may vary slightly from our data, if they occured in-between our weather recording intervals... More about our weather records

Advertising

Allentown weather history for previous 24 hours

 ConditionsComfort  
Time TempWeatherWind HumidityBarometerVisibility
7:51 AM
Oct 24
54 °FMostly cloudy.18 mph62%29.87 "Hg10 mi
6:51 AM55 °FOvercast.17 mph62%29.85 "Hg10 mi
5:51 AM54 °FOvercast.9 mph67%29.84 "Hg10 mi
4:51 AM54 °FOvercast.13 mph67%29.85 "Hg10 mi
3:51 AM54 °FOvercast.15 mph67%29.84 "Hg10 mi
2:51 AM54 °FOvercast.14 mph67%29.83 "Hg10 mi
1:51 AM53 °FOvercast.15 mph72%29.83 "Hg10 mi
12:51 AM53 °FOvercast.12 mph69%29.83 "Hg10 mi
11:51 PM
Oct 23
53 °FOvercast.14 mph69%29.83 "Hg10 mi
10:51 PM53 °FOvercast.12 mph69%29.85 "Hg10 mi
9:51 PM53 °FOvercast.12 mph69%29.87 "Hg10 mi
8:51 PM53 °FOvercast.12 mph66%29.85 "Hg10 mi
7:51 PM52 °FOvercast.3 mph69%29.85 "Hg10 mi
6:51 PM52 °FMostly cloudy.7 mph69%29.85 "Hg10 mi
5:51 PM53 °FOvercast.12 mph69%29.81 "Hg10 mi
4:51 PM53 °FOvercast.24 mph69%29.80 "Hg10 mi
3:51 PM54 °FMostly cloudy.15 mph67%29.80 "Hg10 mi
2:51 PM54 °FOvercast.16 mph64%29.79 "Hg10 mi
1:51 PM52 °FOvercast.17 mph69%29.80 "Hg10 mi
12:51 PM53 °FMostly cloudy.18 mph66%29.80 "Hg10 mi
11:51 AM52 °FMostly cloudy.22 mph69%29.80 "Hg10 mi
10:51 AM51 °FOvercast.14 mph71%29.81 "Hg10 mi
9:51 AM51 °FOvercast.14 mph69%29.81 "Hg10 mi
Weather by CustomWeather, © 2014

See weather overviewHow to use our weather pages